This is the latest recevied weather packets stored in our database for station/object ER1XDX-15. If no packets are shown the sender has not sent any weather packets the latest 10 day(s).
| Time | Temp. | Humidity | Pressure | Rain* | Wind** | Luminosity | Snow |
|---|---|---|---|---|---|---|---|
| 1777448952 | 23.89° C | 27% | 1011.5 hPa | - | - | - | - |
| 1777448052 | 23.89° C | 26% | 1011.5 hPa | - | - | - | - |
| 1777447152 | 23.89° C | 24% | 1011.6 hPa | - | - | - | - |
| 1777446251 | 22.78° C | 24% | 1011.4 hPa | - | - | - | - |
| 1777445351 | 21.11° C | 24% | 1011.5 hPa | - | - | - | - |
| 1777444451 | 21.11° C | 25% | 1011.6 hPa | - | - | - | - |
| 1777443551 | 20° C | 24% | 1011.6 hPa | - | - | - | - |
| 1777442651 | 21.11° C | 27% | 1011.4 hPa | - | - | - | - |
| 1777441749 | 20.56° C | 26% | 1011.6 hPa | - | - | - | - |
| 1777440849 | 20.56° C | 25% | 1011.5 hPa | - | - | - | - |
| 1777439949 | 20° C | 26% | 1011.3 hPa | - | - | - | - |
| 1777439049 | 20° C | 26% | 1011.2 hPa | - | - | - | - |
| 1777438149 | 20° C | 26% | 1011.1 hPa | - | - | - | - |
| 1777437249 | 19.44° C | 26% | 1011 hPa | - | - | - | - |
| 1777436349 | 19.44° C | 27% | 1010.9 hPa | - | - | - | - |
| 1777435449 | 19.44° C | 27% | 1010.8 hPa | - | - | - | - |
| 1777434549 | 19.44° C | 27% | 1010.7 hPa | - | - | - | - |
| 1777433649 | 19.44° C | 27% | 1010.5 hPa | - | - | - | - |
| 1777432749 | 19.44° C | 27% | 1010.4 hPa | - | - | - | - |
| 1777431848 | 19.44° C | 27% | 1010.5 hPa | - | - | - | - |
| 1777430948 | 19.44° C | 27% | 1010.4 hPa | - | - | - | - |
| 1777430048 | 19.44° C | 27% | 1010.4 hPa | - | - | - | - |
| 1777429148 | 19.44° C | 27% | 1010.4 hPa | - | - | - | - |
| 1777428247 | 19.44° C | 27% | 1010.4 hPa | - | - | - | - |
| 1777427347 | 19.44° C | 27% | 1010.4 hPa | - | - | - | - |
* Rain since midnight (hover to see other rain measurements)
** Current wind speed in m/s (hover to see current wind gust speed)